Philadelphia, PA

8:27 PM EDT on June 19, 2018 (GMT -0400)
Philadelphia International

Weather History for KPHL - October, 2017

Change the Weather History Date:

Thursday, October 12, 2017

  Actual Average Record
Temperature  
Mean Temperature 62 °F 59 °F  
Max Temperature 67 °F 68 °F 88 °F (1954)
Min Temperature 57 °F 50 °F 28 °F (1964)
Degree Days  
Heating Degree Days 3 7  
Month to date heating degree days 12 66  
Since 1 July heating degree days 26 104  
Cooling Degree Days 0 1  
Month to date cooling degree days 73 16  
Year to date cooling degree days 1477 1294  
Growing Degree Days 10 (Base 50)    
Moisture  
Dew Point 56 °F    
Average Humidity 79    
Maximum Humidity 93    
Minimum Humidity 64    
Precipitation  
Precipitation 0.20 in 0.11 in 1.62 in (1904)
Month to date precipitation 0.88 1.31  
Year to date precipitation 35.95 33.11  
Snow  
Snow 0.00 in 0.00 in 0.00 in ()
Month to date snowfall 0.0 0.0  
Since 1 July snowfall 0.0 0.0  
Since 1 September snowfall 0.0 0.0  
Snow Depth 0.00 in    
Sea Level Pressure  
Sea Level Pressure 30.24 in    
Wind  
Wind Speed 13 mph (ENE)    
Max Wind Speed 24 mph    
Max Gust Speed 30 mph    
Visibility 8 miles    
Events Rain    
T = Trace of Precipitation, MM = Missing Value Source: NWS Daily Summary

Daily Weather History Graph

Daily Weather History Graph

Search for Another Location

Airport or City:

Astronomy

Oct. 12, 2017 Rise Set
Actual Time 7:08 AM EDT 6:25 PM EDT
Civil Twilight 6:41 AM EDT 6:52 PM EDT
Nautical Twilight 6:09 AM EDT 7:24 PM EDT
Astronomical Twilight 5:38 AM EDT 7:55 PM EDT
Moon No Moon Rise 2:16 PM EDT (10/12)
Length of Visible Light 12h 11m
Length of Day
11h 17m
Waning Gibbous, 49% of the Moon is Illuminated
Oct 12
Waning Gibbous
Oct 19
New
Oct 27
First Quarter
Nov 4
Full
Nov 10
Last Quarter

Hourly Weather History & Observations

Time (EDT) Temp. Dew Point Humidity Pressure Visibility Wind Dir Wind Speed Gust Speed Precip Events Conditions
12:54 AM 66.9 °F 61.0 °F 81% 30.10 in 10.0 mi East 12.7 mph 23.0 mph N/A   Overcast
1:11 AM 66.9 °F 61.0 °F 81% 30.11 in 10.0 mi ENE 12.7 mph 21.9 mph N/A   Overcast
1:54 AM 66.9 °F 60.1 °F 79% 30.12 in 10.0 mi ENE 12.7 mph 19.6 mph 0.00 in   Overcast
2:16 AM 66.0 °F 61.0 °F 84% 30.13 in 8.0 mi NE 12.7 mph - 0.00 in Rain Light Rain
2:30 AM 66.0 °F 61.0 °F 84% 30.13 in 6.0 mi NE 9.2 mph 18.4 mph 0.00 in Rain Light Rain
2:41 AM 66.0 °F 61.0 °F 84% 30.13 in 4.0 mi NE 10.4 mph - 0.00 in Rain Rain
2:49 AM 64.4 °F 60.8 °F 88% 30.13 in 3.0 mi NE 12.7 mph 19.6 mph 0.03 in Rain Rain
2:54 AM 64.9 °F 61.0 °F 87% 30.13 in 3.0 mi NE 13.8 mph - 0.04 in Rain Rain
3:02 AM 64.9 °F 61.0 °F 87% 30.13 in 5.0 mi NE 11.5 mph - 0.01 in Rain Light Rain
3:07 AM 64.9 °F 61.0 °F 87% 30.13 in 7.0 mi NE 11.5 mph - 0.01 in Rain Light Rain
3:54 AM 63.0 °F 60.1 °F 90% 30.15 in 8.0 mi NE 18.4 mph - 0.03 in Rain Rain
4:00 AM 63.0 °F 60.1 °F 90% 30.15 in 5.0 mi NE 17.3 mph 26.5 mph 0.00 in Rain Light Rain
4:44 AM 61.0 °F 57.0 °F 87% 30.19 in 7.0 mi ENE 12.7 mph 24.2 mph 0.04 in Rain Light Rain
4:54 AM 61.0 °F 57.0 °F 87% 30.20 in 7.0 mi NNE 15.0 mph 23.0 mph 0.05 in Rain Light Rain
5:03 AM 61.0 °F 57.9 °F 90% 30.20 in 5.0 mi NE 13.8 mph - 0.01 in Rain Rain
5:28 AM 60.1 °F 57.9 °F 93% 30.21 in 5.0 mi NE 16.1 mph 20.7 mph 0.07 in Rain Light Rain
5:46 AM 60.1 °F 57.0 °F 90% 30.21 in 5.0 mi ENE 16.1 mph 24.2 mph 0.07 in Rain Light Rain
5:54 AM 60.1 °F 57.0 °F 90% 30.21 in 5.0 mi ENE 12.7 mph 28.8 mph 0.07 in Rain Light Rain
6:19 AM 60.1 °F 57.0 °F 90% 30.22 in 6.0 mi ENE 15.0 mph 24.2 mph 0.01 in Rain Light Rain
6:42 AM 59.0 °F 55.9 °F 90% 30.22 in 7.0 mi ENE 16.1 mph 25.3 mph 0.01 in Rain Light Rain
6:54 AM 59.0 °F 55.0 °F 87% 30.22 in 8.0 mi ENE 19.6 mph 27.6 mph 0.01 in Rain Light Rain
7:14 AM 59.0 °F 55.9 °F 90% 30.23 in 10.0 mi ENE 15.0 mph 24.2 mph 0.00 in Rain Light Rain
7:32 AM 59.0 °F 57.0 °F 93% 30.24 in 10.0 mi ENE 13.8 mph 20.7 mph 0.00 in Rain Light Rain
7:43 AM 60.1 °F 57.0 °F 90% 30.25 in 10.0 mi ENE 12.7 mph - 0.00 in Rain Light Rain
7:54 AM 60.1 °F 57.0 °F 90% 30.25 in 10.0 mi ENE 11.5 mph - 0.00 in Rain Light Rain
8:14 AM 59.0 °F 55.0 °F 87% 30.26 in 10.0 mi ENE 15.0 mph 23.0 mph 0.00 in   Overcast
8:42 AM 60.1 °F 55.0 °F 83% 30.27 in 10.0 mi ENE 15.0 mph 21.9 mph 0.00 in   Overcast
8:54 AM 60.1 °F 55.9 °F 86% 30.28 in 10.0 mi ENE 13.8 mph 23.0 mph 0.00 in   Overcast
9:40 AM 60.1 °F 55.9 °F 86% 30.29 in 10.0 mi ENE 11.5 mph - N/A   Overcast
9:54 AM 60.1 °F 55.9 °F 86% 30.29 in 10.0 mi ENE 13.8 mph - N/A   Overcast
10:00 AM 60.1 °F 55.9 °F 86% 30.29 in 7.0 mi ENE 12.7 mph - 0.00 in   Light Drizzle
10:05 AM 60.1 °F 55.9 °F 86% 30.29 in 6.0 mi ENE 12.7 mph 21.9 mph 0.00 in   Light Drizzle
10:15 AM 60.1 °F 55.9 °F 86% 30.30 in 8.0 mi ENE 13.8 mph 23.0 mph 0.00 in   Overcast
10:35 AM 60.1 °F 55.0 °F 83% 30.30 in 10.0 mi ENE 13.8 mph 23.0 mph 0.00 in   Overcast
10:54 AM 60.1 °F 55.0 °F 83% 30.30 in 10.0 mi NE 13.8 mph - 0.00 in Rain Light Rain
11:54 AM 62.1 °F 55.0 °F 78% 30.31 in 10.0 mi ENE 13.8 mph 24.2 mph 0.00 in   Overcast
12:54 PM 62.1 °F 54.0 °F 75% 30.30 in 10.0 mi ENE 11.5 mph 20.7 mph 0.00 in Rain Light Rain
1:54 PM 62.1 °F 54.0 °F 75% 30.30 in 10.0 mi ENE 10.4 mph - 0.00 in   Overcast
2:54 PM 62.1 °F 54.0 °F 75% 30.29 in 10.0 mi ENE 12.7 mph - N/A   Overcast
3:23 PM 63.0 °F 53.1 °F 70% 30.30 in 10.0 mi ENE 10.4 mph 21.9 mph N/A   Overcast
3:54 PM 63.0 °F 52.0 °F 67% 30.30 in 10.0 mi ENE 15.0 mph - N/A   Overcast
4:54 PM 62.1 °F 51.1 °F 67% 30.32 in 10.0 mi East 18.4 mph 24.2 mph N/A   Overcast
5:54 PM 61.0 °F 50.0 °F 67% 30.32 in 10.0 mi ENE 18.4 mph 23.0 mph N/A   Overcast
6:54 PM 61.0 °F 50.0 °F 67% 30.34 in 10.0 mi ENE 9.2 mph - N/A   Overcast
7:54 PM 60.1 °F 48.9 °F 67% 30.36 in 10.0 mi ENE 11.5 mph 18.4 mph N/A   Overcast
8:54 PM 59.0 °F 48.0 °F 67% 30.37 in 10.0 mi ENE 11.5 mph 23.0 mph N/A   Overcast
9:54 PM 57.9 °F 48.9 °F 72% 30.37 in 10.0 mi ENE 9.2 mph - N/A   Scattered Clouds
10:54 PM 57.0 °F 48.9 °F 74% 30.37 in 10.0 mi ENE 9.2 mph - N/A   Mostly Cloudy
11:54 PM 57.0 °F 48.9 °F 74% 30.37 in 10.0 mi ENE 8.1 mph - N/A   Scattered Clouds